Regional Weather Roundup
Issued by NWS Sterling, VA

Home | Current Version | Previous Version | Graphics & Text | Print | Product List | Glossary On
Versions: 1 2 3 4 5 6 7 8 9 10 11 12 13 14 15 16 17 18 19 20 21 22 23 24 25 26 27 28
000
ASUS41 KLWX 281910
RWRLWX

REGIONAL WEATHER ROUNDUP
NATIONAL WEATHER SERVICE BALTIMORE MD/WASHINGTON DC
300 PM EDT SAT MAY 28 2016

Note: "FAIR" indicates few or no clouds below 12,000 feet
with no significant weather and/or obstructions to visibility.
 TC=TEMPERATURE CELSIUS

 * =Non NWS site. Station does not report precipitation (e.g. rain,
    snow, etc.), thunder, or fog.

DCZ001-MDZ009-015-VAZ040>042-051-053>054-282000-
WASHINGTON METRO

CITY           SKY/WX    TMP DP  RH WIND       PRES   REMARKS
WASHINGTON NAT FAIR      86  69  56 S13       30.13F HX  90
DULLES         FAIR      87  66  49 S13       30.13F
ANDREWS AFB    SUNNY     88  65  46 S13       30.14F HX  90
FT BELVOIR     FAIR      88  64  43 S6        30.13F
QUANTICO       FAIR      83  70  64 S12       30.14F
COLLEGE PARK*  FAIR      88  63  42 SW7       30.12F
LEESBURG*      FAIR      91  68  46 S12G22    30.13F HX  95
MANASSAS*      MOSUNNY   90  66  45 SW8       30.13F HX  92

$$

MDZ006>007-011-014-282000-
BALTIMORE METRO

CITY           SKY/WX    TMP DP  RH WIND       PRES   REMARKS
BWI AIRPORT    MOSUNNY   87  68  52 S10       30.12F HX  90
MD SCIENCE CTR   N/A     86  67  52 MISG      30.12F
MARTIN STATE   SUNNY     84  72  65 SE13      30.15F
ANNAPOLIS      SUNNY     80  68  66 S10G21    30.14F
FORT MEADE*    MOSUNNY   88  64  45 SW7       30.14F

$$

MDZ012-015-019>023-282000-
MARYLAND EASTERN SHORE

CITY           SKY/WX    TMP DP  RH WIND       PRES   REMARKS
OCEAN CITY     SUNNY     75  61  61 S8        30.19F
SALISBURY      MOSUNNY   86  64  47 S10G18    30.16F
BAY BRIDGE AP* SUNNY     84  66  54 S14       30.15S
CAMBRIDGE*     SUNNY     82  63  51 S6        30.16S
EASTON*        SUNNY     86  72  62 SW12G18   30.19S HX  92

$$

MDZ017>025-282000-
SOUTHERN MARYLAND

CITY           SKY/WX    TMP DP  RH WIND       PRES   REMARKS
PATUXENT RIVER MOSUNNY   79  64  60 SE14      30.16F
ST INIGOES     SUNNY     82  63  52 SE12      30.15F
LEONARDTOWN*   SUNNY     84  63  48 S6        30.17F

$$

MDZ003>005-282000-
NORTH CENTRAL MARYLAND

CITY           SKY/WX    TMP DP  RH WIND       PRES   REMARKS
FREDERICK*     SUNNY     90  70  51 SW7       30.14F HX  95
HAGERSTOWN APT MOSUNNY   89  64  43 S8        30.12F HX  90
WESTMINSTER*   MOSUNNY   91  86  84 S10       30.14F HX 122

$$

MDZ501>502-282000-
WESTERN MARYLAND

CITY           SKY/WX    TMP DP  RH WIND       PRES   REMARKS
OAKLAND*       NOT AVBL
CUMBERLAND*    SUNNY     90  64  43 S6        30.15S HX  91

$$

VAZ025>031-282000-
SHENANDOAH VALLEY

CITY           SKY/WX    TMP DP  RH WIND       PRES   REMARKS
WINCHESTER*    FAIR      86  68  54 S7        30.13F
FRONT ROYAL*   MOCLDY    86  70  58 SE5       30.12F HX  90
LURAY*         FAIR      88  64  45 S6        30.14F
NEW MARKET*    FAIR      86  66  51 S10       30.11F
STAUNTON*      FAIR      84  62  47 S8        30.18F
WAYNESBORO*    FAIR      84  61  46 E12       30.18F

$$

WVZ021-048>050-054>055-282000-
EASTERN WEST VIRGINIA PANHANDLE

CITY           SKY/WX    TMP DP  RH WIND       PRES   REMARKS
MARTINSBURG    FAIR      87  66  49 SE8       30.11F
PETERSBURG*    FAIR      89  68  48 SE9       30.13F HX  93

$$

VAZ036>039-050-282000-
CENTRAL FOOTHILLS

CITY           SKY/WX    TMP DP  RH WIND       PRES   REMARKS
CHARLOTTESVILL FAIR      87  62  43 S10       30.15F
CULPEPER*      FAIR      89  66  45 S6        30.14F HX  91
ORANGE*        FAIR      88  64  45 NE8       30.16F
GORDONSVILLE*  FAIR      87  65  48 S14       30.14F
WARRENTON*     FAIR      89  58  34 S6        30.13F

$$

VAZ055>057-282000-
NORTH AND CENTRAL PIEDMONT

CITY           SKY/WX    TMP DP  RH WIND       PRES   REMARKS
FREDERICKSBRG* FAIR      90  63  39 S6        30.13F HX  91
STAFFORD*      FAIR      87  62  41 S5        30.18F

$$

NCZ024-NYZ072-PAZ021-071-VAZ022-071-282000-
OTHER REGIONAL OBSERVATIONS

CITY           SKY/WX    TMP DP  RH WIND       PRES   REMARKS
NEW YORK CITY  SUNNY     90  66  45 VRB7      30.10F HX  92
PHILADELPHIA   MOSUNNY   90  65  43 SW15      30.12F HX  92
PITTSBURGH     MOSUNNY   87  63  44 S8        30.11F
ROANOKE        PTSUNNY   82  60  47 SE8       30.18F
RICHMOND       FAIR      84  62  47 SE6       30.16F
RALEIGH        MOSUNNY   85  57  38 NE6       30.16F

$$

ANZ530>537-282000-
MARINE OBSERVATIONS

STATION/POSITION TIME  TEMP    WIND        PRES
                       AIR SEA DIR/SP/G
                 (UTC) (F)     (DEG/KT/KT) (MB)
THOMAS PT LIGHT  1900   72 68  170/ 16/ 17 1021.8F
BALT KEY BRIDGE  1800   78     120/ 12/ 13 1020.3F
COVE POINT       1800   69     190/ 15/ 18 1022.3F
LEWISETTA        1800   82 66  180/  8/ 10 1021.2F
SOLOMONS ISLAND  1800   75 69  130/ 13/ 15   N/A
PINEY POINT      1800          150/ 13/ 14   N/A

$$





USA.gov is the U.S. government's official web portal to all federal, state and local government web resources and services.